[[{"header":{"parameterUnit":"m.s-1","parameterCategory":1,"la1":30.2991,"la2":30.254,"lo1":-89.0895,"lo2":-89.0444,"dx":0.0017,"dy":0.0017,"nx":28,"ny":28,"refTime":"2022-11-03T15:00:00:Z","depth":0,"parameterNumber":2,"parameterNumberName":"U-component_of_WINDS"},"data":[0,0,0,0,0,0,0,0,0,0,0,0,0,0,0,0,0,0,0,0,0,0,0,0,0,0,0,0,0,0,0,0,0,0,0,0,0,0,0,0,0,0,0,0,0,0,0,0,0,0,0,0,0,0,0,0,0,0,-6.0,-6.0003,0,-6.0226,-6.0229,-6.0231,-6.0277,-6.0275,-6.0273,-6.0272,-6.0503,-6.051,-6.0518,0,0,0,0,0,0,0,0,0,0,0,0,0,-5.9613,-5.962,-6.0,-6.0003,-6.0006,-6.0226,-6.0229,-6.0232,-6.0277,-6.0275,-6.0273,-6.0271,-6.05,-6.0509,-6.0518,0,0,0,0,0,0,0,0,0,0,0,0,0,-5.9804,-5.9622,-6.0,-6.0055,-6.0062,-6.0225,-6.0229,-6.0233,-6.0277,-6.0275,-6.0272,-6.027,-6.0497,-6.0508,-6.052,-6.0643,0,0,-6.0555,-6.056,0,0,0,0,0,0,0,0,-5.9793,-5.9818,-6.0044,-6.0051,-6.006,-6.0221,-6.0177,-6.037,-6.0278,-6.0196,-6.0272,-6.0269,-6.0411,-6.0429,-6.0477,-6.0654,-6.0664,-6.0556,-6.0563,-6.0568,-6.0572,0,0,0,0,0,0,0,-5.978,-5.9809,-6.009,-6.0047,-6.0057,-6.007,-6.0094,-6.0214,-6.0315,-6.0203,-6.0207,-6.0233,-6.0415,-6.0466,-6.0483,-6.0667,-6.0556,-6.0566,-6.0573,-6.0578,-6.0963,-6.0966,0,0,0,0,0,0,-5.9756,-5.9797,-6.0082,-6.0096,-5.9917,-6.0079,-6.0106,-6.0172,-6.0314,-6.0333,-6.0235,-6.0234,-6.0447,-6.0469,-6.0491,-6.0647,-6.0568,-6.0579,-6.0586,-6.0959,-6.0963,-6.0967,0,0,0,0,0,0,-5.9748,-5.9781,-6.0073,-5.9948,-5.9986,-6.0088,-6.0162,-6.0177,-6.0229,-6.0338,-6.0356,-6.0268,-6.0446,-6.0475,-6.0606,-6.0656,-6.0584,-6.0595,-6.0956,-6.0961,-6.0965,-6.0958,0,0,0,0,0,0,-5.9737,-5.9778,-5.9824,-5.9949,-5.9993,-6.0183,-6.0165,-6.0184,-6.0249,-6.025,-6.0374,-6.0392,-6.0446,-6.0589,-6.0618,-6.0671,-6.0604,-6.0951,-6.0958,-6.0964,-6.0955,-6.0963,-6.0969,0,0,0,0,0,-5.9723,-5.9812,-5.9826,-5.986,-6.0053,-6.0185,-6.0211,-6.0271,-6.0252,-6.0301,-6.0372,-6.0388,-6.0647,-6.0602,-6.0635,-6.0692,-6.0949,-6.0956,-6.0963,-6.0951,-6.0961,-6.0969,0,0,0,0,0,0,-5.9689,-5.9829,-5.9846,-5.9979,-6.007,-6.0193,-6.0255,-6.0278,-6.0376,-6.0373,-6.0445,-6.0472,-6.06,-6.066,-6.0607,-6.0822,-6.0797,-6.0811,-6.0777,-6.0787,-6.0794,-6.0775,-6.0614,0,0,0,0,0,-5.9697,-5.9793,-5.9911,-6.0016,-6.0062,-6.0151,-6.0211,-6.025,-6.0347,-6.0386,-6.0466,-6.056,-6.0664,-6.0729,-6.083,-6.0966,-6.0995,-6.1022,-6.1029,-6.1035,-6.1045,-6.1125,-6.1139,-6.0991,-6.0991,-6.0991,0,0,-5.9714,-5.9803,-5.9858,-6.0012,-6.0087,-6.0186,-6.0182,-6.0286,-6.036,-6.0401,-6.053,-6.0594,-6.0704,-6.0839,-6.0903,-6.0893,-6.1094,-6.1044,-6.1048,-6.1055,-6.1134,-6.1147,-6.116,-6.0996,-6.0995,-6.0994,0,0,-5.9795,-5.9872,-5.997,-6.0047,-6.0162,-6.0222,-6.0246,-6.0367,-6.0411,-6.0542,-6.0577,-6.0668,-6.0843,-6.0921,-6.0983,-6.1103,-6.1123,-6.1135,-6.1171,-6.1248,-6.1259,-6.127,-6.1313,-6.1328,-6.1146,-6.1146,-6.1146,0,-5.9801,-5.995,-6.0017,-6.012,-6.0188,-6.0234,-6.0334,-6.0406,-6.0548,-6.0594,-6.0583,-6.0807,-6.0884,-6.1039,-6.1069,-6.1119,-6.1149,-6.1118,-6.1252,-6.1264,-6.1275,-6.1317,-6.1332,-6.1146,-6.1146,-6.1146,-6.1146,0,-5.9953,-6.0056,-6.0122,-6.026,-6.0336,-6.0437,-6.0521,-6.0591,-6.0626,-6.0688,-6.0824,-6.092,-6.1042,-6.1083,-6.1117,-6.1246,-6.1236,-6.1238,-6.1213,-6.1288,-6.1329,-6.1345,-6.1147,-6.1147,-6.1147,-6.1146,0,0,-6.001,-6.019,-6.0212,-6.0277,-6.0412,-6.0494,-6.06,-6.0721,-6.078,-6.0879,-6.097,-6.1122,-6.1126,-6.1197,-6.1242,-6.131,-6.1401,-6.1304,-6.1308,-6.1318,-6.1549,-6.1545,-6.1562,-6.1417,-6.142,-6.1423,-6.154,0,-6.0107,-6.0296,-6.0363,-6.052,-6.0618,-6.0667,-6.076,-6.0854,-6.0917,-6.1011,-6.1082,-6.1187,-6.1185,-6.1229,-6.1299,-6.1374,-6.1448,-6.1368,-6.1502,-6.1506,-6.1469,-6.1583,-6.1578,-6.1683,-6.1556,-6.1559,-6.1561,0,-6.0241,-6.0344,-6.0511,-6.0639,-6.0682,-6.0764,-6.0883,-6.0973,-6.1082,-6.1124,-6.1207,-6.1249,-6.1365,-6.1338,-6.15,-6.1444,-6.1505,-6.1552,-6.1557,-6.1569,-6.1535,-6.1596,-6.1718,-6.1732,-6.1586,-6.1584,-6.1583,0,-6.0266,-6.0447,-6.0571,-6.0626,-6.0777,-6.0834,-6.09,-6.1008,-6.1078,-6.1184,-6.1231,-6.1348,-6.1411,-6.1503,-6.1577,-6.155,-6.1732,-6.1711,-6.177,-6.1769,-6.1802,-6.1798,-6.1933,-6.1846,-6.1846,-6.1846,-6.1845,0,-6.0364,-6.0464,-6.0585,-6.066,-6.0776,-6.0855,-6.0967,-6.1037,-6.1133,-6.1225,-6.1277,-6.1362,-6.1456,-6.1555,-6.1614,-6.174,-6.1769,-6.1806,-6.182,-6.18,-6.1795,-6.1837,-6.1831,-6.185,-6.1849,-6.1848,-6.1847,0,-6.0408,-6.0493,-6.0632,-6.0766,-6.0803,-6.0882,-6.0998,-6.1075,-6.1144,-6.126,-6.1292,-6.14,-6.1519,-6.1604,-6.1757,-6.1797,-6.1932,-6.1947,-6.1895,-6.1901,-6.1955,-6.1948,-6.2119,-6.2146,-6.2043,-6.2044,-6.2045,0,-6.0462,-6.0541,-6.0686,-6.0752,-6.0818,-6.0923,-6.0997,-6.1081,-6.1155,-6.129,-6.1352,-6.1475,-6.1578,-6.1767,-6.186,-6.1979,-6.1995,-6.2048,-6.2013,-6.1992,-6.1995,-6.1988,-6.1997,-6.2051,-6.2051,-6.2052,-6.2052,0,-6.055,-6.0591,-6.0694,-6.0815,-6.0902,-6.1001,-6.11,-6.1151,-6.1253,-6.1335,-6.1459,-6.1539,-6.1699,-6.1821,-6.1951,-6.202,-6.2054,-6.2064,-6.2084,-6.2061,-6.2028,-6.2046,-6.1906,-6.2058,-6.2057,-6.2057,-6.2057,-6.2056,-6.0601,-6.0674,-6.0789,-6.0905,-6.099,-6.1083,-6.1163,-6.1244,-6.1349,-6.1485,-6.153,-6.1658,-6.1772,-6.195,-6.2023,-6.2126,-6.2122,-6.2151,-6.2158,-6.2163,-6.2162,-6.2015,-6.215,-6.215,-6.215,-6.215,-6.215,0,-6.069,-6.0769,-6.0875,-6.1014,-6.1106,-6.1134,-6.1247,-6.1322,-6.1434,-6.1538,-6.164,-6.1785,-6.1906,-6.2011,-6.2138,-6.2201,-6.2219,-6.2231,-6.2225,-6.2241,-6.2158,-6.2127,-6.2213,-6.2213,-6.2213,-6.2213,-6.2213,-6.2213,-6.0747,-6.0874,-6.0929,-6.1101,-6.1179,-6.1306,-6.1368,-6.1456,-6.154,-6.1699,-6.1801,-6.187,-6.1976,-6.2111,-6.2225,-6.2253,-6.2296,-6.2304,-6.2335,-6.2254,-6.2246,-6.2239,-6.2211,-6.2313,-6.2313,-6.241,-6.2411,-6.2411]},{"header":{"parameterUnit":"m.s-1","parameterCategory":1,"la1":30.2991,"la2":30.254,"lo1":-89.0895,"lo2":-89.0444,"dx":0.0017,"dy":0.0017,"nx":28,"ny":28,"refTime":"2022-11-03T15:00:00:Z","depth":0,"parameterNumber":3,"parameterNumberName":"V-component_of_WINDS"},"data":[0,0,0,0,0,0,0,0,0,0,0,0,0,0,0,0,0,0,0,0,0,0,0,0,0,0,0,0,0,0,0,0,0,0,0,0,0,0,0,0,0,0,0,0,0,0,0,0,0,0,0,0,0,0,0,0,0,0,1.5034,1.5035,0,1.5175,1.5176,1.5178,1.5331,1.5333,1.5335,1.5337,1.5479,1.5481,1.5483,0,0,0,0,0,0,0,0,0,0,0,0,0,1.4897,1.4899,1.5033,1.5035,1.5037,1.5174,1.5176,1.5178,1.533,1.5333,1.5336,1.5338,1.5479,1.5481,1.5483,0,0,0,0,0,0,0,0,0,0,0,0,0,1.4989,1.4899,1.5033,1.513,1.514,1.5174,1.5176,1.5179,1.533,1.5333,1.5336,1.5339,1.5478,1.5481,1.5483,1.5433,0,0,1.5491,1.5492,0,0,0,0,0,0,0,0,1.4983,1.4994,1.5114,1.5123,1.5134,1.5239,1.5181,1.5264,1.5329,1.5257,1.5337,1.5341,1.5396,1.5406,1.5425,1.544,1.5446,1.5491,1.5493,1.5494,1.5495,0,0,0,0,0,0,0,1.4977,1.4988,1.5089,1.5115,1.5128,1.5166,1.5183,1.5197,1.5307,1.5264,1.5275,1.529,1.5403,1.5422,1.543,1.5448,1.5491,1.5494,1.5495,1.5496,1.5434,1.543,0,0,0,0,0,0,1.4956,1.4982,1.5085,1.5094,1.5066,1.5166,1.5185,1.5202,1.5307,1.5326,1.5287,1.5297,1.5416,1.5426,1.5435,1.5386,1.5494,1.5497,1.5498,1.5437,1.5433,1.5429,0,0,0,0,0,0,1.4952,1.4964,1.5079,1.5041,1.5059,1.5165,1.5183,1.5203,1.5223,1.5325,1.5345,1.5287,1.5419,1.5431,1.5434,1.5393,1.5498,1.55,1.5441,1.5436,1.5431,1.5286,0,0,0,0,0,0,1.4948,1.4961,1.4943,1.504,1.506,1.5074,1.518,1.5203,1.5227,1.5241,1.533,1.5348,1.5423,1.5429,1.5436,1.5399,1.5502,1.5445,1.5438,1.5433,1.5295,1.5277,1.5261,0,0,0,0,0,1.4942,1.4895,1.4941,1.4953,1.5039,1.5072,1.5084,1.5172,1.5223,1.5206,1.5272,1.5345,1.5396,1.5428,1.5437,1.54,1.5448,1.544,1.5433,1.5302,1.528,1.5262,0,0,0,0,0,0,1.479,1.491,1.4962,1.4944,1.4997,1.5098,1.5078,1.5145,1.5183,1.5195,1.5302,1.5321,1.5311,1.5356,1.5389,1.5359,1.5433,1.5427,1.533,1.531,1.5293,1.5283,1.5504,0,0,0,0,0,1.4754,1.477,1.4875,1.4849,1.4873,1.4971,1.4988,1.5052,1.511,1.5133,1.5199,1.5253,1.5282,1.5299,1.533,1.5302,1.5325,1.5282,1.5265,1.5251,1.5244,1.5236,1.5219,1.5405,1.5406,1.5406,0,0,1.468,1.4748,1.4751,1.482,1.4868,1.4884,1.4988,1.4999,1.5012,1.5135,1.5142,1.5192,1.5259,1.5247,1.5245,1.5284,1.5198,1.5241,1.5229,1.5231,1.5227,1.5209,1.5193,1.5401,1.5401,1.5402,0,0,1.4554,1.4606,1.4593,1.464,1.4712,1.4778,1.4774,1.4866,1.4905,1.4914,1.5007,1.5024,1.5071,1.5116,1.5145,1.504,1.5109,1.5047,1.4959,1.495,1.4935,1.4923,1.4887,1.4873,1.5041,1.504,1.504,0,1.4453,1.448,1.4577,1.4583,1.4612,1.4725,1.4713,1.4754,1.4832,1.4849,1.4893,1.4956,1.5009,1.5011,1.4985,1.5004,1.5005,1.5037,1.493,1.4918,1.4908,1.4875,1.4861,1.5032,1.5033,1.5034,1.5035,0,1.4354,1.4371,1.4351,1.4426,1.4453,1.4449,1.4546,1.4561,1.4623,1.4685,1.4694,1.4763,1.4812,1.4817,1.4877,1.4828,1.485,1.491,1.4986,1.488,1.4852,1.484,1.5021,1.5024,1.5026,1.5028,0,0,1.4133,1.4264,1.4255,1.4292,1.4382,1.4398,1.4401,1.445,1.4462,1.4513,1.4519,1.4558,1.4615,1.4648,1.4714,1.4706,1.4621,1.4768,1.4771,1.4739,1.4574,1.4529,1.4513,1.4668,1.4666,1.4664,1.4569,0,1.4024,1.4037,1.4125,1.4112,1.4131,1.4241,1.4244,1.43,1.4358,1.4383,1.4448,1.4474,1.4546,1.4568,1.4564,1.4632,1.459,1.464,1.4676,1.4676,1.4656,1.4498,1.4449,1.4356,1.4558,1.4556,1.4555,0,1.3898,1.3943,1.3932,1.4026,1.4037,1.4037,1.4092,1.4114,1.4181,1.4224,1.4262,1.4338,1.4349,1.442,1.4438,1.447,1.449,1.4526,1.4525,1.4532,1.4609,1.4501,1.4328,1.4314,1.4538,1.4539,1.4541,0,1.374,1.3799,1.3801,1.3829,1.3936,1.3935,1.398,1.405,1.4075,1.4123,1.4141,1.4188,1.4214,1.425,1.4337,1.4381,1.4345,1.4423,1.4383,1.438,1.437,1.4369,1.4198,1.4381,1.4381,1.4381,1.4382,0,1.3609,1.3599,1.3732,1.3733,1.3725,1.3828,1.3818,1.3873,1.3935,1.395,1.4048,1.4059,1.4174,1.4199,1.4267,1.4273,1.4283,1.432,1.4338,1.4311,1.4307,1.4326,1.4335,1.4378,1.4379,1.4379,1.438,0,1.3431,1.352,1.353,1.3633,1.3658,1.3648,1.3737,1.3743,1.3808,1.3826,1.3836,1.3939,1.3974,1.4065,1.4123,1.4169,1.4156,1.419,1.4134,1.4146,1.41,1.4104,1.3936,1.392,1.4111,1.4109,1.4108,0,1.3342,1.3337,1.344,1.3457,1.3499,1.3525,1.3552,1.3654,1.3678,1.3756,1.3752,1.3796,1.3836,1.3887,1.3967,1.4013,1.4049,1.3988,1.4057,1.4031,1.405,1.405,1.4051,1.3972,1.3969,1.3967,1.3966,0,1.3175,1.322,1.3256,1.3307,1.3337,1.3382,1.3433,1.3441,1.3556,1.3578,1.3616,1.3647,1.3709,1.3751,1.381,1.3858,1.3931,1.3944,1.3937,1.391,1.3878,1.3896,1.4093,1.3947,1.3949,1.395,1.3951,1.3952,1.3041,1.3042,1.3116,1.3153,1.3202,1.3248,1.3259,1.3328,1.3361,1.3419,1.3478,1.351,1.358,1.3667,1.371,1.3737,1.3775,1.3765,1.3763,1.3759,1.3747,1.3873,1.3748,1.3749,1.375,1.375,1.3751,0,1.288,1.2934,1.2967,1.3035,1.3065,1.3133,1.3193,1.3213,1.3241,1.33,1.3339,1.3384,1.3426,1.3511,1.3561,1.3567,1.3602,1.3577,1.3578,1.3588,1.371,1.3711,1.3548,1.3548,1.3548,1.3548,1.3548,1.3548,1.28,1.2807,1.2861,1.2895,1.2949,1.2982,1.3011,1.3055,1.3103,1.3149,1.3185,1.3241,1.3311,1.3368,1.3411,1.3435,1.3449,1.3413,1.3448,1.356,1.3579,1.3597,1.3599,1.3415,1.3415,1.3324,1.3323,1.3323]}]]